Weather History for Elbow Lake, MN

Change the Weather History Date:

Thursday, February 21, 2013

  Actual Average (KFFM) Record (KFFM)
Temperature  
Mean Temperature 11 °F -  
Max Temperature 19 °F 28 °F 48 °F (1961)
Min Temperature 3 °F 8 °F -19 °F (1968)
Degree Days  
Heating Degree Days 54    
Moisture  
Dew Point 2 °F    
Average Humidity 65    
Maximum Humidity 78    
Minimum Humidity 54    
Precipitation  
Precipitation 0.00 in - - ()
Sea Level Pressure  
Sea Level Pressure 30.26 in    
Wind  
Wind Speed 8 mph (East)    
Max Wind Speed 14 mph    
Max Gust Speed 18 mph    
Visibility 10 miles    
Events      
Averages and records for this station are not official NWS values.
T = Trace of Precipitation, MM = Missing Value Source: NWS Daily Summary

Daily Weather History Graph

Daily Weather History Graph

Search for Another Location

Airport:

Trip Planner

Search our weather history database for the weather conditions in past years. The results will help you decide how hot, cold, wet, or windy it might be!

Date:

Astronomy

Feb. 21, 2013 Rise Set
Actual Time 7:16 AM CST 5:59 PM CST
Civil Twilight 6:45 AM CST 6:29 PM CST
Nautical Twilight 6:11 AM CST 7:04 PM CST
Astronomical Twilight 5:36 AM CST 7:39 PM CST
Moon 2:06 PM CST (2/21) 4:30 AM CST (2/21)
Length of Visible Light 11h 43m
Length of Day
10h 43m
Waxing Gibbous, 84% of the Moon is Illuminated
Feb 21
Waxing Gibbous
Feb 25
Full
Mar 4
Last Quarter
Mar 11
New
Mar 19
First Quarter

Hourly Weather History & Observations

Time (CST) Temp. Windchill Dew Point Humidity Pressure Visibility Wind Dir Wind Speed Gust Speed Precip Events Conditions
12:15 AM 8.6 °F -3.7 °F -4.0 °F 57% 30.33 in 10.0 mi ESE 8.1 mph - N/A   Clear
12:35 AM 6.8 °F -2.0 °F -4.0 °F 61% 30.34 in 10.0 mi SE 4.6 mph - N/A   Clear
12:55 AM 5.0 °F -4.1 °F -4.0 °F 66% 30.34 in 10.0 mi ESE 4.6 mph - N/A   Clear
1:15 AM 5.0 °F -4.1 °F -4.0 °F 66% 30.34 in 10.0 mi ESE 4.6 mph - N/A   Clear
1:35 AM 5.0 °F -4.1 °F -4.0 °F 66% 30.35 in 10.0 mi SE 4.6 mph - N/A   Clear
1:55 AM 5.0 °F -4.1 °F -4.0 °F 66% 30.35 in 10.0 mi SE 4.6 mph - N/A   Clear
2:15 AM 5.0 °F -4.1 °F -4.0 °F 66% 30.35 in 10.0 mi ESE 4.6 mph - N/A   Clear
2:35 AM 3.2 °F -6.2 °F -5.8 °F 66% 30.35 in 10.0 mi ESE 4.6 mph - N/A   Clear
2:55 AM 5.0 °F -4.1 °F -4.0 °F 66% 30.35 in 10.0 mi ESE 4.6 mph - N/A   Clear
3:15 AM 3.2 °F -7.8 °F -5.8 °F 66% 30.35 in 10.0 mi ESE 5.8 mph - N/A   Clear
3:35 AM 5.0 °F -6.9 °F -4.0 °F 66% 30.35 in 10.0 mi ESE 6.9 mph - N/A   Clear
3:55 AM 5.0 °F -6.9 °F -4.0 °F 66% 30.35 in 10.0 mi ESE 6.9 mph - N/A   Clear
4:15 AM 5.0 °F -9.1 °F -4.0 °F 66% 30.34 in 10.0 mi East 9.2 mph - N/A   Clear
4:35 AM 5.0 °F -10.0 °F -4.0 °F 66% 30.33 in 10.0 mi East 10.4 mph - N/A   Clear
4:55 AM 5.0 °F -10.0 °F -4.0 °F 66% 30.33 in 10.0 mi East 10.4 mph - N/A   Clear
5:15 AM 5.0 °F -10.0 °F -4.0 °F 66% 30.31 in 10.0 mi East 10.4 mph - N/A   Clear
5:35 AM 5.0 °F -12.3 °F -2.2 °F 72% 30.29 in 10.0 mi East 13.8 mph - N/A   Clear
5:55 AM 5.0 °F -11.6 °F -2.2 °F 72% 30.28 in 10.0 mi East 12.7 mph - N/A   Clear
6:15 AM 5.0 °F -11.6 °F -2.2 °F 72% 30.28 in 10.0 mi East 12.7 mph - N/A   Clear
6:35 AM 5.0 °F -11.6 °F -2.2 °F 72% 30.28 in 10.0 mi East 12.7 mph - N/A   Clear
6:55 AM 5.0 °F -9.1 °F -2.2 °F 72% 30.29 in 10.0 mi East 9.2 mph - N/A   Clear
7:15 AM 5.0 °F -10.8 °F -0.4 °F 78% 30.33 in 10.0 mi ESE 11.5 mph - N/A   Clear
7:35 AM 5.0 °F -9.1 °F -0.4 °F 78% 30.35 in 10.0 mi SE 9.2 mph - N/A   Clear
7:55 AM 5.0 °F -9.1 °F -2.2 °F 72% 30.36 in 10.0 mi ESE 9.2 mph - N/A   Clear
8:15 AM 5.0 °F -9.1 °F -0.4 °F 78% 30.36 in 10.0 mi ESE 9.2 mph - N/A   Clear
8:35 AM 5.0 °F -10.0 °F -0.4 °F 78% 30.35 in 10.0 mi ESE 10.4 mph - N/A   Clear
8:55 AM 5.0 °F -9.1 °F -0.4 °F 78% 30.34 in 10.0 mi East 9.2 mph - N/A   Clear
9:35 AM 8.6 °F -7.7 °F -0.4 °F 67% 30.32 in 10.0 mi East 13.8 mph - N/A   Clear
9:55 AM 8.6 °F -7.0 °F 1.4 °F 73% 30.31 in 10.0 mi East 12.7 mph - N/A   Clear
10:15 AM 10.4 °F -4.1 °F 1.4 °F 67% 30.32 in 10.0 mi East 11.5 mph - N/A   Clear
10:35 AM 10.4 °F -4.8 °F 3.2 °F 73% 30.32 in 10.0 mi East 12.7 mph 18.4 mph N/A   Clear
10:55 AM 10.4 °F -4.8 °F 3.2 °F 73% 30.33 in 10.0 mi East 12.7 mph - N/A   Clear
11:15 AM 12.2 °F -2.5 °F 3.2 °F 67% 30.33 in 10.0 mi East 12.7 mph - N/A   Clear
11:35 AM 12.2 °F -1.8 °F 5.0 °F 73% 30.32 in 10.0 mi East 11.5 mph 16.1 mph N/A   Clear
12:15 PM 14.0 °F -0.2 °F 5.0 °F 67% 30.31 in 10.0 mi East 12.7 mph - N/A   Clear
12:35 PM 15.8 °F 2.7 °F 5.0 °F 62% 30.30 in 10.0 mi East 11.5 mph - N/A   Clear
12:55 PM 15.8 °F 2.1 °F 5.0 °F 62% 30.29 in 10.0 mi East 12.7 mph - N/A   Clear
1:15 PM 17.6 °F 5.7 °F 5.0 °F 58% 30.28 in 10.0 mi ESE 10.4 mph - N/A   Clear
1:35 PM 17.6 °F 6.4 °F 6.8 °F 63% 30.28 in 10.0 mi East 9.2 mph - N/A   Clear
1:55 PM 17.6 °F 6.4 °F 6.8 °F 63% 30.27 in 10.0 mi East 9.2 mph - N/A   Clear
2:15 PM 17.6 °F 6.4 °F 5.0 °F 58% 30.26 in 10.0 mi East 9.2 mph - N/A   Clear
2:35 PM 17.6 °F 6.4 °F 5.0 °F 58% 30.26 in 10.0 mi East 9.2 mph - N/A   Clear
2:55 PM 19.4 °F 7.2 °F 5.0 °F 54% 30.24 in 10.0 mi East 11.5 mph - N/A   Clear
3:15 PM 19.4 °F 6.6 °F 5.0 °F 54% 30.23 in 10.0 mi East 12.7 mph - N/A   Clear
3:35 PM 19.4 °F 7.9 °F 6.8 °F 58% 30.22 in 10.0 mi East 10.4 mph - N/A   Clear
4:15 PM 19.4 °F 8.6 °F 5.0 °F 54% 30.21 in 10.0 mi East 9.2 mph - N/A   Clear
5:15 PM 19.4 °F 9.5 °F 5.0 °F 54% 30.20 in 10.0 mi East 8.1 mph - N/A   Clear
5:35 PM 19.4 °F 10.4 °F 5.0 °F 54% 30.21 in 10.0 mi East 6.9 mph - N/A   Clear
5:55 PM 19.4 °F 10.4 °F 5.0 °F 54% 30.21 in 10.0 mi East 6.9 mph - N/A   Clear
6:15 PM 19.4 °F 12.8 °F 5.0 °F 54% 30.20 in 10.0 mi ENE 4.6 mph - N/A   Clear
6:35 PM 19.4 °F 14.3 °F 6.8 °F 58% 30.20 in 10.0 mi ENE 3.5 mph - N/A   Clear
6:55 PM 19.4 °F 11.5 °F 6.8 °F 58% 30.19 in 10.0 mi ENE 5.8 mph - N/A   Scattered Clouds
7:15 PM 19.4 °F 11.5 °F 5.0 °F 54% 30.19 in 10.0 mi ENE 5.8 mph - N/A   Clear
7:35 PM 19.4 °F 8.6 °F 5.0 °F 54% 30.18 in 10.0 mi East 9.2 mph - N/A   Clear
7:55 PM 19.4 °F 8.6 °F 5.0 °F 54% 30.17 in 10.0 mi East 9.2 mph - N/A   Clear
8:15 PM 19.4 °F 9.5 °F 5.0 °F 54% 30.16 in 10.0 mi ENE 8.1 mph - N/A   Scattered Clouds
8:35 PM 19.4 °F 8.6 °F 5.0 °F 54% 30.16 in 10.0 mi ENE 9.2 mph - N/A   Scattered Clouds
8:55 PM 19.4 °F 9.5 °F 5.0 °F 54% 30.15 in 10.0 mi ENE 8.1 mph - N/A   Clear
9:15 PM 19.4 °F 9.5 °F 6.8 °F 58% 30.15 in 10.0 mi ENE 8.1 mph - N/A   Scattered Clouds
9:35 PM 19.4 °F 8.6 °F 8.6 °F 63% 30.14 in 10.0 mi ENE 9.2 mph - N/A   Scattered Clouds
9:55 PM 19.4 °F 9.5 °F 8.6 °F 63% 30.14 in 10.0 mi ENE 8.1 mph - N/A   Scattered Clouds
10:15 PM 19.4 °F 8.6 °F 8.6 °F 63% 30.13 in 10.0 mi ENE 9.2 mph - N/A   Scattered Clouds
10:35 PM 19.4 °F 7.9 °F 10.4 °F 68% 30.12 in 10.0 mi East 10.4 mph - N/A   Mostly Cloudy
10:55 PM 19.4 °F 7.2 °F 10.4 °F 68% 30.11 in 10.0 mi ENE 11.5 mph - N/A   Scattered Clouds
11:15 PM 19.4 °F 8.6 °F 10.4 °F 68% 30.10 in 10.0 mi ENE 9.2 mph - N/A   Mostly Cloudy
11:35 PM 19.4 °F 7.9 °F 12.2 °F 74% 30.10 in 10.0 mi East 10.4 mph - N/A   Overcast
11:55 PM 19.4 °F 8.6 °F 12.2 °F 74% 30.09 in 10.0 mi East 9.2 mph - N/A   Overcast